• In Österreich
  • Länderverzeichnis
  • Für 7 Tage
  • Wassertemperatur
  • Satellitenkarten
  • Wetterkarte
  • News
  • Widgets
  • user-avatar
    Anmelden

    Stündliche Wetter Grado

    Heute, 20 Januar, Freitag

    Zeit Temperatur Niederschläge Wind Luftdruck Luftfeuchtigkeit
    00:00 -4°C° 0 mm 5 m/S 775 mmHg 75%
    01:00 -4°C° 0 mm 5 m/S 775 mmHg 77%
    02:00 -4°C° 0 mm 5 m/S 775 mmHg 76%
    03:00 -3°C° 0 mm 4 m/S 775 mmHg 75%
    04:00 -4°C° 0 mm 4 m/S 775 mmHg 75%
    05:00 -4°C° 0 mm 4 m/S 775 mmHg 74%
    06:00 -4°C° 0 mm 4 m/S 775 mmHg 74%
    07:00 -4°C° 0 mm 4 m/S 775 mmHg 74%
    08:00 -3°C° 0 mm 4 m/S 775 mmHg 70%
    09:00 -1°C° 0 mm 4 m/S 775 mmHg 66%
    10:00 +1°C° 0 mm 3 m/S 775 mmHg 62%
    11:00 +2°C° 0 mm 3 m/S 775 mmHg 60%
    12:00 +3°C° 0 mm 3 m/S 775 mmHg 59%
    13:00 +5°C° 0 mm 2 m/S 775 mmHg 57%
    14:00 +4°C° 0 mm 2 m/S 775 mmHg 62%
    15:00 +4°C° 0 mm 2 m/S 775 mmHg 66%
    16:00 +3°C° 0 mm 2 m/S 774 mmHg 71%
    17:00 +1°C° 0 mm 2 m/S 775 mmHg 75%
    18:00 -1°C° 0 mm 2 m/S 775 mmHg 79%
    19:00 -2°C° 0 mm 2 m/S 775 mmHg 83%
    20:00 -2°C° 0 mm 2 m/S 775 mmHg 82%
    21:00 -2°C° 0 mm 2 m/S 775 mmHg 81%
    22:00 -2°C° 0 mm 2 m/S 775 mmHg 81%
    23:00 -3°C° 0 mm 2 m/S 775 mmHg 79%

    Morgen, 21 Januar, Samstag

    Zeit Temperatur Niederschläge Wind Luftdruck Luftfeuchtigkeit
    00:00 -3°C° 0 mm 2 m/S 775 mmHg 78%
    01:00 -3°C° 0 mm 2 m/S 775 mmHg 77%
    02:00 -3°C° 0 mm 2 m/S 775 mmHg 77%
    03:00 -3°C° 0 mm 2 m/S 774 mmHg 76%
    04:00 -3°C° 0 mm 2 m/S 774 mmHg 75%
    05:00 -3°C° 0 mm 2 m/S 774 mmHg 74%
    06:00 -3°C° 0 mm 2 m/S 774 mmHg 73%
    07:00 -3°C° 0 mm 2 m/S 774 mmHg 72%
    08:00 -1°C° 0 mm 2 m/S 774 mmHg 68%
    09:00 +2°C° 0 mm 2 m/S 774 mmHg 63%
    10:00 +3°C° 0 mm 2 m/S 774 mmHg 58%
    11:00 +5°C° 0 mm 2 m/S 774 mmHg 56%
    12:00 +6°C° 0 mm 2 m/S 773 mmHg 54%
    13:00 +7°C° 0 mm 2 m/S 773 mmHg 52%
    14:00 +6°C° 0 mm 2 m/S 773 mmHg 59%
    15:00 +5°C° 0 mm 2 m/S 772 mmHg 65%
    16:00 +4°C° 0 mm 2 m/S 772 mmHg 71%
    17:00 +3°C° 0 mm 2 m/S 772 mmHg 75%
    18:00 +1°C° 0 mm 2 m/S 773 mmHg 78%
    19:00 -1°C° 0 mm 3 m/S 773 mmHg 82%
    20:00 -1°C° 0 mm 3 m/S 773 mmHg 80%
    21:00 -1°C° 0 mm 3 m/S 773 mmHg 79%
    22:00 -1°C° 0 mm 3 m/S 773 mmHg 77%
    23:00 -1°C° 0 mm 3 m/S 773 mmHg 77%

    übermorgen, 22 Januar, Sonntag

    Zeit Temperatur Niederschläge Wind Luftdruck Luftfeuchtigkeit
    00:00 -1°C° 0 mm 3 m/S 773 mmHg 76%
    01:00 -1°C° 0 mm 3 m/S 773 mmHg 75%
    02:00 -1°C° 0 mm 3 m/S 773 mmHg 74%
    03:00 -1°C° 0 mm 3 m/S 773 mmHg 73%
    04:00 -2°C° 0 mm 3 m/S 773 mmHg 72%
    05:00 -2°C° 0 mm 3 m/S 773 mmHg 71%
    06:00 -2°C° 0 mm 3 m/S 773 mmHg 70%
    07:00 -2°C° 0 mm 3 m/S 772 mmHg 69%
    08:00 0°C° 0 mm 3 m/S 772 mmHg 64%
    09:00 +1°C° 0 mm 3 m/S 772 mmHg 60%
    10:00 +3°C° 0 mm 3 m/S 772 mmHg 55%
    11:00 +4°C° 0 mm 3 m/S 772 mmHg 53%
    12:00 +6°C° 0 mm 2 m/S 771 mmHg 52%
    13:00 +7°C° 0 mm 2 m/S 771 mmHg 50%
    14:00 +6°C° 0 mm 2 m/S 771 mmHg 55%
    15:00 +5°C° 0 mm 2 m/S 771 mmHg 61%
    16:00 +4°C° 0 mm 2 m/S 771 mmHg 67%
    17:00 +3°C° 0 mm 2 m/S 771 mmHg 68%
    18:00 +1°C° 0 mm 3 m/S 771 mmHg 69%
    19:00 0°C° 0 mm 3 m/S 771 mmHg 71%
    20:00 0°C° 0 mm 3 m/S 771 mmHg 70%
    21:00 +1°C° 0 mm 2 m/S 771 mmHg 70%
    22:00 +1°C° 0 mm 2 m/S 770 mmHg 70%
    23:00 +1°C° 0 mm 2 m/S 770 mmHg 70%

    23 Januar, Montag

    Zeit Temperatur Niederschläge Wind Luftdruck Luftfeuchtigkeit
    00:00 0°C° 0 mm 3 m/S 770 mmHg 69%
    01:00 0°C° 0 mm 3 m/S 770 mmHg 69%
    02:00 0°C° 0 mm 3 m/S 769 mmHg 70%
    03:00 0°C° 0 mm 3 m/S 769 mmHg 71%
    04:00 +1°C° 0 mm 2 m/S 768 mmHg 73%
    05:00 0°C° 0 mm 3 m/S 768 mmHg 73%
    06:00 0°C° 0 mm 3 m/S 768 mmHg 73%
    07:00 +1°C° 0 mm 3 m/S 768 mmHg 73%
    08:00 +2°C° 0 mm 3 m/S 767 mmHg 69%
    09:00 +4°C° 0 mm 3 m/S 767 mmHg 66%
    10:00 +6°C° 0 mm 2 m/S 767 mmHg 63%
    11:00 +8°C° 0 mm 2 m/S 767 mmHg 61%
    12:00 +9°C° 0 mm 2 m/S 766 mmHg 59%
    13:00 +10°C° 0 mm 2 m/S 766 mmHg 57%
    14:00 +9°C° 0 mm 2 m/S 765 mmHg 63%
    15:00 +8°C° 0 mm 2 m/S 765 mmHg 69%
    16:00 +7°C° 0 mm 2 m/S 765 mmHg 74%
    17:00 +6°C° 0 mm 2 m/S 765 mmHg 78%
    18:00 +5°C° 0 mm 2 m/S 765 mmHg 82%
    19:00 +4°C° 0 mm 2 m/S 765 mmHg 85%
    20:00 +3°C° 0 mm 3 m/S 765 mmHg 84%
    21:00 +2°C° 0 mm 3 m/S 765 mmHg 84%
    22:00 +2°C° 0 mm 3 m/S 765 mmHg 83%
    23:00 +2°C° 0 mm 3 m/S 765 mmHg 82%

    24 Januar, Dienstag

    Zeit Temperatur Niederschläge Wind Luftdruck Luftfeuchtigkeit
    00:00 +2°C° 0 mm 3 m/S 765 mmHg 82%
    01:00 +2°C° 0 mm 3 m/S 764 mmHg 81%
    02:00 +1°C° 0 mm 3 m/S 764 mmHg 81%
    03:00 +1°C° 0 mm 3 m/S 764 mmHg 80%
    04:00 +1°C° 0 mm 3 m/S 764 mmHg 79%
    05:00 +1°C° 0 mm 3 m/S 764 mmHg 80%
    06:00 +1°C° 0 mm 3 m/S 764 mmHg 80%
    07:00 +1°C° 0 mm 3 m/S 764 mmHg 81%
    08:00 +2°C° 0 mm 3 m/S 765 mmHg 76%
    09:00 +3°C° 0 mm 3 m/S 765 mmHg 71%
    10:00 +5°C° 0 mm 3 m/S 765 mmHg 67%
    11:00 +7°C° 0 mm 3 m/S 765 mmHg 64%
    12:00 +7°C° 0 mm 3 m/S 765 mmHg 61%
    13:00 +8°C° 0 mm 3 m/S 765 mmHg 58%
    14:00 +8°C° 0 mm 3 m/S 765 mmHg 61%
    15:00 +7°C° 0 mm 3 m/S 765 mmHg 64%
    16:00 +5°C° 0 mm 3 m/S 765 mmHg 67%
    17:00 +4°C° 0 mm 3 m/S 765 mmHg 70%
    18:00 +2°C° 0 mm 3 m/S 766 mmHg 72%
    19:00 +1°C° 0 mm 3 m/S 767 mmHg 75%
    20:00 +1°C° 0 mm 3 m/S 767 mmHg 76%
    21:00 0°C° 0 mm 3 m/S 767 mmHg 76%
    22:00 0°C° 0 mm 3 m/S 768 mmHg 76%
    23:00 0°C° 0 mm 3 m/S 768 mmHg 76%

    25 Januar, Mittwoch

    Zeit Temperatur Niederschläge Wind Luftdruck Luftfeuchtigkeit
    00:00 0°C° 0 mm 3 m/S 768 mmHg 76%
    01:00 0°C° 0 mm 3 m/S 768 mmHg 76%
    02:00 -1°C° 0 mm 3 m/S 768 mmHg 76%
    03:00 -2°C° 0 mm 4 m/S 768 mmHg 75%
    04:00 -2°C° 0 mm 4 m/S 768 mmHg 75%
    05:00 -2°C° 0 mm 4 m/S 768 mmHg 75%
    06:00 -2°C° 0 mm 4 m/S 769 mmHg 74%
    07:00 -2°C° 0 mm 4 m/S 769 mmHg 74%
    08:00 -1°C° 0 mm 5 m/S 769 mmHg 69%
    09:00 0°C° 0 mm 5 m/S 770 mmHg 64%
    10:00 +1°C° 0 mm 5 m/S 770 mmHg 59%
    11:00 +2°C° 0 mm 5 m/S 770 mmHg 57%
    12:00 +3°C° 0 mm 5 m/S 770 mmHg 55%
    13:00 +5°C° 0 mm 4 m/S 769 mmHg 53%
    14:00 +5°C° 0 mm 4 m/S 769 mmHg 57%
    15:00 +4°C° 0 mm 4 m/S 769 mmHg 61%
    16:00 +3°C° 0 mm 4 m/S 769 mmHg 66%
    17:00 +1°C° 0 mm 4 m/S 770 mmHg 70%
    18:00 0°C° 0 mm 4 m/S 770 mmHg 75%
    19:00 -1°C° 0 mm 4 m/S 770 mmHg 79%
    20:00 -1°C° 0 mm 3 m/S 771 mmHg 79%
    21:00 -1°C° 0 mm 3 m/S 771 mmHg 79%
    22:00 -1°C° 0 mm 3 m/S 771 mmHg 79%
    23:00 -1°C° 0 mm 3 m/S 771 mmHg 79%
    Mehr zeigen